Home > Weather > The Valley > Past weeks

Flag for Anguilla Past Weather in The Valley, Anguilla — Yesterday and Last 2 Weeks

Now
79 °F

Partly cloudy.


Feels Like: 82 °F
Forecast: 79 / 84 °F
Wind: 6 mph from East

Location: Juliana Airport - Saint Maarten

Current Time: May 26, 2016 at 5:00:20 AM

Latest Report: May 26, 2016 at 4:00 AM


Visibility: N/A

Pressure: 29.98 "Hg

Humidity: 84%

Dew Point: 73 °F

Location of The ValleyLocation

Past Weather in The Valley — Graph

°F

The Valley Temperature Yesterday

Maximum temperature yesterday: 86 °F (at 12:00 PM)
Minimum temperature yesterday: 79 °F (at 2:00 AM)
Average temperature yesterday: 82 °F

High & Low Weather Summary for the Past Weeks

 TemperatureHumidityPressure
High86 °F (May 11, 1:00 PM)100% (May 11, 11:00 AM)30.12 "Hg (May 11, 11:00 AM)
Low68 °F (May 11, 11:00 AM)49% (May 11, 1:00 PM)29.98 "Hg (May 12, 2:00 PM)
Average82 °F76%30.05 "Hg
* Reported May 11 3:00 AM — May 26 3:00 AM, The Valley, Weather by CustomWeather, © 2016

Note: Actual official high and low records may vary slightly from our data, if they occured in-between our weather recording intervals... More about our weather records

Advertising

The Valley Weather History for the Previous 24 Hours

Scroll right to see more
 ConditionsComfort  
Time TempWeatherWind HumidityBarometerVisibility
3:00 AM
Thu, May 26
77 °FPassing clouds.5 mph89%29.98 "HgN/A
2:00 AM79 °FScattered showers. Passing clouds.6 mph79%30.01 "HgN/A
1:00 AM77 °FPassing clouds.6 mph83%30.01 "HgN/A
12:00 AM81 °FPassing clouds.7 mph70%30.04 "HgN/A
11:00 PM
Wed, May 25
81 °FSprinkles. Passing clouds.7 mph74%30.04 "HgN/A
10:00 PM81 °FPassing clouds.7 mph70%30.04 "HgN/A
9:00 PM81 °FPassing clouds.9 mph70%30.04 "HgN/A
8:00 PM81 °FPassing clouds.9 mph70%30.04 "HgN/A
7:00 PM81 °FPassing clouds.9 mph70%30.01 "HgN/A
6:00 PM82 °FPassing clouds.12 mph62%30.01 "HgN/A
5:00 PM84 °FScattered clouds.13 mph62%30.01 "HgN/A
4:00 PM86 °FScattered clouds.12 mph59%30.01 "HgN/A
3:00 PM86 °FPassing clouds.10 mph59%30.01 "HgN/A
2:00 PM86 °FPassing clouds.12 mph59%30.04 "HgN/A
1:00 PM86 °FScattered clouds.13 mph62%30.04 "HgN/A
12:00 PM86 °FPassing clouds.12 mph59%30.07 "HgN/A
11:00 AM82 °FPassing clouds.6 mph70%30.07 "HgN/A
10:00 AM84 °FPassing clouds.No wind62%30.09 "HgN/A
9:00 AM82 °FPartly sunny.10 mph70%30.09 "HgN/A
8:00 AM82 °FScattered clouds.10 mph70%30.09 "HgN/A
7:00 AM81 °FScattered clouds.12 mph74%30.09 "HgN/A
6:00 AM81 °FPassing clouds.7 mph79%30.07 "HgN/A
5:00 AM81 °FPassing clouds.7 mph74%30.07 "HgN/A
Weather by CustomWeather, © 2016

See weather overviewHow to use our weather pages